Regional Weather Roundup
Issued by NWS

Home | Current Version | Previous Version | Graphics & Text | Print | Product List | Glossary On
Versions: 1 2 3 4 5 6 7 8 9 10 11 12 13 14 15 16 17 18 19 20 21 22 23 24 25 26 27
000
ASUS45 KCYS 241310
RWRWY

WYOMING REGIONAL WEATHER ROUNDUP
NATIONAL WEATHER SERVICE CHEYENNE WY
600 AM MST FRI FEB 24 2017

NOTE:  "FAIR" INDICATES FEW OR NO CLOUDS BELOW 12,000 FEET
WITH NO SIGNIFICANT WEATHER AND/OR OBSTRUCTIONS TO VISIBILITY.

WYZ001-241400-
YELLOWSTONE NATIONAL PARK

CITY           SKY/WX    TMP DP  RH WIND       PRES   REMARKS
LK YELLOWSTONE   N/A      4   2  91 CALM      29.78R
W YELLOWSTONE  NOT AVBL

$$
WYZ002>013-054>058-071-098>099-241400-
NORTHERN WYOMING

CITY           SKY/WX    TMP DP  RH WIND       PRES   REMARKS
JACKSON        CLOUDY    16  16 100 SW7       29.82R WCI   6
CODY           FAIR      14  11  87 SE3       29.89R
GREYBULL       CLOUDY    22  20  92 CALM      29.93R
WORLAND        CLOUDY    17  16  95 S3        29.91S FOG
SHERIDAN       CLOUDY    19  15  84 SE9       29.93S WCI   8
BUFFALO        LGT SNOW  19  14  81 S7        29.90S WCI  10
GILLETTE       CLOUDY    20  18  92 SE5       29.93S WCI  13
HULETT         CLOUDY    21  19  93 MISG      29.96S
NEWCASTLE      LGT SNOW  21  21 100 SE6       29.95S WCI  14

$$
WYZ014>020-022>026-101>103-241400-
CENTRAL WYOMING

CITY           SKY/WX    TMP DP  RH WIND       PRES   REMARKS
BIG PINEY      CLOUDY    12   8  84 CALM      29.80R
PINEDALE       LGT SNOW  12  10  92 E6        29.80R WCI   3
DUBOIS         LGT SNOW  10   7  85 SW5       29.78R WCI   2
LANDER         LGT SNOW  16  13  88 S3        29.86R FOG
RIVERTON       LGT SNOW  16  14  92 SW3       29.88R FOG
CASPER         CLOUDY    13  10  88 NE12      29.87R WCI  -1
DOUGLAS        LGT SNOW  14  12  92 E6        29.92R FOG     WCI   5

$$
WYZ021-027>030-104>119-241400-
SOUTHERN WYOMING

CITY           SKY/WX    TMP DP  RH WIND       PRES   REMARKS
EVANSTON       CLOUDY    13   8  81 SW6       29.82R WCI   4
FORT BRIDGER   CLOUDY    14  14  99 W12       29.84R WCI   0
ROCK SPRINGS   CLOUDY    13   9  84 CALM      29.82R
DIXON          LGT SNOW  15  11  85 SW6       29.82R WCI   6
RAWLINS        LGT SNOW  11   7  84 NE16      29.75R FOG     WCI  -6
SARATOGA       FLURRIES  14  14 100 CALM      29.74R
LARAMIE        LGT SNOW   7   3  84 CALM      29.75R FOG
CHEYENNE       LGT SNOW  13  10  88 N6        29.83R FOG     WCI   4
TORRINGTON     CLOUDY    18  14  84 CALM      29.93R
PINE BLUFFS    CLOUDY    18  16  93 N7        29.89R WCI   8

$$




USA.gov is the U.S. government's official web portal to all federal, state and local government web resources and services.